Location: Arrodets-la-Barthe
(43.0306°N, 0.2829°E)
Time: 17:58:32
(UTC+00:00)

Cosmos 2278 Rocket - Pass Details

Date: 24 October 2021
Orbit: 841 x 845 km, 71.0° (Epoch: 02 December)

Event Time Altitude Azimuth Distance (km) Brightness Sun altitude
Rises 19:29:05 0° 342° (NNW) 3,414 5.7 -27.5°
Reaches altitude 10° 19:31:53 10° 354° (N) 2,475 4.8 -28.0°
Enters shadow 19:34:08 20° 12° (NNE) 1,843 3.9 -28.4°
